K6OUA-11 Weather Reports


time (UTC)temp
C
wind
direction
speed
KPH
gust
KPH
rain 1hr
cm
rain 24hr
cm
rain mn
cm
humidity
%
barometer
mb
20260904203612 27 268 12.9 22.5 0.00 0.00 0.00 45
20260904203410 27 300 11.3 22.5 0.00 0.00 0.00 44
20260904203208 27 261 16.1 22.5 0.00 0.00 0.00 43
20260904202804 27 261 16.1 22.5 0.00 0.00 0.00 41
20260904202602 27 285 3.2 20.9 0.00 0.00 0.00 43
20260904202400 27 272 16.1 20.9 0.00 0.00 0.00 43
20260904202158 27 277 14.5 24.1 0.00 0.00 0.00 43
20260904201956 27 277 11.3 24.1 0.00 0.00 0.00 43
20260904201754 27 240 11.3 24.1 0.00 0.00 0.00 43
20260904201553 26 271 16.1 20.9 0.00 0.00 0.00 44
20260904201350 27 289 6.4 20.9 0.00 0.00 0.00 44
20260904201148 26 291 8.0 20.9 0.00 0.00 0.00 44
20260904200946 27 277 14.5 20.9 0.00 0.00 0.00 44
20260904200745 27 285 11.3 20.9 0.00 0.00 0.00 43
20260904200542 27 278 12.9 20.9 0.00 0.00 0.00 43
20260904200339 27 251 11.3 20.9 0.00 0.00 0.00 42
20260904200137 27 291 6.4 14.5 0.00 0.00 0.00 42
20260904195531 27 281 8.0 16.1 0.00 0.00 0.00 40
20260904195329 28 258 8.0 16.1 0.00 0.00 0.00 40
20260904195127 28 320 1.6 8.0 0.00 0.00 0.00 39
20260904194927 28 146 0.0 8.0 0.00 0.00 0.00 39
20260904194725 27 52 0.0 9.7 0.00 0.00 0.00 41
20260904194521 27 171 0.0 9.7 0.00 0.00 0.00 40
20260904194321 27 260 1.6 9.7 0.00 0.00 0.00 39
20260904194119 27 213 4.8 12.9 0.00 0.00 0.00 40
20260904193916 27 156 1.6 12.9 0.00 0.00 0.00 40
20260904193716 27 226 4.8 11.3 0.00 0.00 0.00 41
20260904193513 27 174 1.6 11.3 0.00 0.00 0.00 41
20260904193110 27 205 3.2 8.0 0.00 0.00 0.00 41
20260904192905 27 309 0.0 8.0 0.00 0.00 0.00 41
20260904192705 27 275 6.4 9.7 0.00 0.00 0.00 40
20260904192504 27 306 0.0 9.7 0.00 0.00 0.00 39
20260904192300 27 285 6.4 9.7 0.00 0.00 0.00 39
20260904192058 27 106 0.0 6.4 0.00 0.00 0.00 40
20260904191856 27 284 0.0 6.4 0.00 0.00 0.00 40
20260904191654 27 284 0.0 11.3 0.00 0.00 0.00 41
20260904191453 27 119 0.0 11.3 0.00 0.00 0.00 41
20260904191252 27 143 6.4 11.3 0.00 0.00 0.00 40
20260904191049 27 161 4.8 9.7 0.00 0.00 0.00 40
20260904190847 27 199 8.0 9.7 0.00 0.00 0.00 39
20260904190646 27 156 3.2 4.8 0.00 0.00 0.00 41
20260904190240 27 278 0.0 6.4 0.00 0.00 0.00 43
20260904190040 26 278 0.0 6.4 0.00 0.00 0.00 44
20260904185838 26 59 0.0 6.4 0.00 0.00 0.00 45
20260904185634 26 257 1.6 8.0 0.00 0.00 0.00 46
20260904185432 26 250 0.0 8.0 0.00 0.00 0.00 47
20260904185230 25 195 0.0 12.9 0.00 0.00 0.00 47
20260904185028 25 324 0.0 12.9 0.00 0.00 0.00 48
20260904184828 25 305 3.2 12.9 0.00 0.00 0.00 48
20260904184624 25 261 8.0 8.0 0.00 0.00 0.00 48
20260904184422 25 285 3.2 8.0 0.00 0.00 0.00 49
20260904184222 25 295 1.6 12.9 0.00 0.00 0.00 49
20260904184020 25 257 3.2 12.9 0.00 0.00 0.00 50
20260904183816 25 257 3.2 12.9 0.00 0.00 0.00 49
20260904183614 25 288 6.4 11.3 0.00 0.00 0.00 49
20260904183412 25 316 8.0 11.3 0.00 0.00 0.00 49
20260904183210 25 315 1.6 17.7 0.00 0.00 0.00 49
20260904183010 25 232 3.2 17.7 0.00 0.00 0.00 49
20260904182806 25 233 6.4 17.7 0.00 0.00 0.00 50
20260904182604 25 275 12.9 12.9 0.00 0.00 0.00 52
20260904182403 24 292 0.0 12.9 0.00 0.00 0.00 52
20260904182203 24 324 0.0 11.3 0.00 0.00 0.00 52
20260904182000 24 317 8.0 11.3 0.00 0.00 0.00 52
20260904181759 24 285 8.0 11.3 0.00 0.00 0.00 51
20260904181555 24 320 0.0 12.9 0.00 0.00 0.00 52
20260904181354 24 277 1.6 12.9 0.00 0.00 0.00 52
20260904181151 24 264 6.4 16.1 0.00 0.00 0.00 53
20260904180949 23 286 4.8 16.1 0.00 0.00 0.00 53
20260904180747 23 262 0.0 16.1 0.00 0.00 0.00 54
20260904180545 23 309 4.8 11.3 0.00 0.00 0.00 54
20260904180343 23 277 14.5 11.3 0.00 0.00 0.00 53
20260904180142 23 279 3.2 14.5 0.00 0.00 0.00 54
20260904175939 23 282 8.0 14.5 0.00 0.00 0.00 54
20260904175737 23 268 8.0 12.9 0.00 0.00 0.00 54
20260904175537 24 260 11.3 12.9 0.00 0.00 0.00 54
20260904175335 23 277 8.0 12.9 0.00 0.00 0.00 52
20260904175132 25 265 11.3 8.0 0.00 0.00 0.00 51
20260904174931 25 277 6.4 8.0 0.00 0.00 0.00 52
20260904174729 25 132 1.6 3.2 0.00 0.00 0.00 53
20260904174527 24 46 0.0 3.2 0.00 0.00 0.00 53
20260904174325 24 87 3.2 3.2 0.00 0.00 0.00 54
20260904174123 23 102 0.0 4.8 0.00 0.00 0.00 56
20260904173919 23 239 0.0 4.8 0.00 0.00 0.00 56
20260904173717 23 239 0.0 8.0 0.00 0.00 0.00 56
20260904173517 23 270 0.0 8.0 0.00 0.00 0.00 55
20260904173313 23 295 1.6 8.0 0.00 0.00 0.00 53
20260904173111 23 299 6.4 9.7 0.00 0.00 0.00 52
20260904172909 23 303 3.2 9.7 0.00 0.00 0.00 52
20260904172707 24 309 0.0 11.3 0.00 0.00 0.00 51
20260904172506 23 309 0.0 11.3 0.00 0.00 0.00 52
20260904172305 23 87 6.4 11.3 0.00 0.00 0.00 54
20260904172102 23 135 3.2 9.7 0.00 0.00 0.00 55
20260904171900 23 147 3.2 9.7 0.00 0.00 0.00 55
20260904171658 23 216 3.2 9.7 0.00 0.00 0.00 55
20260904171456 23 156 0.0 9.7 0.00 0.00 0.00 57
20260904171254 23 53 0.0 9.7 0.00 0.00 0.00 57
20260904171052 23 64 1.6 4.8 0.00 0.00 0.00 58
20260904170850 23 71 0.0 4.8 0.00 0.00 0.00 59
20260904170648 23 293 0.0 9.7 0.00 0.00 0.00 57
20260904170446 23 277 1.6 9.7 0.00 0.00 0.00 56
20260904170244 23 112 1.6 8.0 0.00 0.00 0.00 57
20260904170042 23 181 3.2 8.0 0.00 0.00 0.00 57
20260904165842 23 146 4.8 8.0 0.00 0.00 0.00 58
20260904165436 23 172 0.0 9.7 0.00 0.00 0.00 58
20260904165234 22 165 0.0 14.5 0.00 0.00 0.00 60
20260904165032 22 82 4.8 14.5 0.00 0.00 0.00 60
20260904164832 22 92 4.8 14.5 0.00 0.00 0.00 60
20260904164426 22 80 4.8 11.3 0.00 0.00 0.00 60
20260904164224 22 102 8.0 11.3 0.00 0.00 0.00 61
20260904164022 22 90 8.0 11.3 0.00 0.00 0.00 61
20260904163820 22 90 6.4 11.3 0.00 0.00 0.00 61
20260904163618 22 122 3.2 14.5 0.00 0.00 0.00 61
20260904163416 22 140 6.4 14.5 0.00 0.00 0.00 61
20260904163214 22 118 8.0 12.9 0.00 0.00 0.00 61
20260904163012 22 95 11.3 12.9 0.00 0.00 0.00 61
20260904162812 22 112 6.4 12.9 0.00 0.00 0.00 60
20260904162611 22 153 3.2 12.9 0.00 0.00 0.00 62
20260904162407 22 56 0.0 12.9 0.00 0.00 0.00 63
20260904162205 22 36 0.0 12.9 0.00 0.00 0.00 64
20260904162003 22 119 11.3 12.9 0.00 0.00 0.00 63
20260904161801 22 118 8.0 12.9 0.00 0.00 0.00 63
20260904161601 22 163 4.8 11.3 0.00 0.00 0.00 63
20260904161358 22 151 6.4 11.3 0.00 0.00 0.00 63
20260904161157 22 132 6.4 9.7 0.00 0.00 0.00 63
20260904160953 22 109 8.0 9.7 0.00 0.00 0.00 65
20260904160753 22 87 1.6 9.7 0.00 0.00 0.00 66
20260904160551 21 87 1.6 11.3 0.00 0.00 0.00 66
20260904160347 21 132 6.4 11.3 0.00 0.00 0.00 67
20260904160145 21 122 6.4 9.7 0.00 0.00 0.00 67
20260904155948 21 111 6.4 9.7 0.00 0.00 0.00 66
20260904155945 21 111 6.4 9.7 0.00 0.00 0.00 66
20260904155741 21 133 8.0 11.3 0.00 0.00 0.00 66
20260904155337 21 122 6.4 11.3 0.00 0.00 0.00 67
20260904155135 21 151 4.8 11.3 0.00 0.00 0.00 68
20260904154933 21 122 6.4 11.3 0.00 0.00 0.00 69
20260904154733 21 151 4.8 12.9 0.00 0.00 0.00 68
20260904154529 21 137 6.4 12.9 0.00 0.00 0.00 70
20260904154327 21 116 4.8 12.9 0.00 0.00 0.00 70
20260904154125 20 127 4.8 9.7 0.00 0.00 0.00 71
20260904153924 20 150 6.4 9.7 0.00 0.00 0.00 72
20260904153722 20 135 4.8 11.3 0.00 0.00 0.00 72
20260904153520 20 113 6.4 11.3 0.00 0.00 0.00 72
20260904153318 20 135 8.0 11.3 0.00 0.00 0.00 72
20260904153116 20 95 8.0 11.3 0.00 0.00 0.00 73
20260904152914 20 137 4.8 11.3 0.00 0.00 0.00 74
20260904152712 20 132 4.8 11.3 0.00 0.00 0.00 74
20260904152510 20 136 11.3 11.3 0.00 0.00 0.00 75
20260904152308 20 123 4.8 11.3 0.00 0.00 0.00 75
20260904152106 20 111 8.0 9.7 0.00 0.00 0.00 74
20260904151904 20 118 6.4 9.7 0.00 0.00 0.00 75
20260904151703 20 112 6.4 9.7 0.00 0.00 0.00 76
20260904151501 19 116 8.0 9.7 0.00 0.00 0.00 76
20260904151259 19 108 6.4 9.7 0.00 0.00 0.00 76
20260904151057 19 94 8.0 8.0 0.00 0.00 0.00 76
20260904150855 19 101 8.0 8.0 0.00 0.00 0.00 76
20260904150653 18 132 3.2 4.8 0.00 0.00 0.00 77
20260904150451 18 144 1.6 4.8 0.00 0.00 0.00 78
20260904150249 18 112 4.8 4.8 0.00 0.00 0.00 78
20260904150047 18 108 3.2 6.4 0.00 0.00 0.00 79
20260904145845 18 130 3.2 6.4 0.00 0.00 0.00 79
20260904145643 18 129 1.6 4.8 0.00 0.00 0.00 80
20260904145038 17 90 4.8 0.0 0.00 0.00 0.00 81
20260904144432 17 53 0.0 0.0 0.00 0.00 0.00 82
20260904144232 17 53 0.0 0.0 0.00 0.00 0.00 82
20260904144028 17 53 0.0 0.0 0.00 0.00 0.00 83
20260904143826 17 53 0.0 0.0 0.00 0.00 0.00 84
20260904143624 17 53 0.0 0.0 0.00 0.00 0.00 85
20260904143423 17 53 0.0 0.0 0.00 0.00 0.00 86
20260904143019 16 53 0.0 0.0 0.00 0.00 0.00 86
20260904142817 16 53 0.0 0.0 0.00 0.00 0.00 86
20260904142616 16 53 0.0 0.0 0.00 0.00 0.00 87
20260904142413 16 53 0.0 0.0 0.00 0.00 0.00 87
20260904142211 16 53 0.0 0.0 0.00 0.00 0.00 87
20260904142009 16 53 0.0 0.0 0.00 0.00 0.00 87
20260904141807 16 53 0.0 0.0 0.00 0.00 0.00 87
20260904141605 16 53 0.0 0.0 0.00 0.00 0.00 87
20260904141403 16 53 0.0 0.0 0.00 0.00 0.00 87
20260904141202 16 53 0.0 0.0 0.00 0.00 0.00 87
20260904141000 16 53 0.0 0.0 0.00 0.00 0.00 87
20260904140758 16 53 0.0 0.0 0.00 0.00 0.00 87
20260904140556 16 53 0.0 0.0 0.00 0.00 0.00 87
20260904140354 16 53 0.0 0.0 0.00 0.00 0.00 88
20260904140154 16 53 0.0 0.0 0.00 0.00 0.00 88
20260904135952 16 53 0.0 0.0 0.00 0.00 0.00 88
20260904135748 16 53 0.0 0.0 0.00 0.00 0.00 88
20260904135547 16 53 0.0 0.0 0.00 0.00 0.00 88
20260904135344 16 53 0.0 0.0 0.00 0.00 0.00 88
20260904135143 16 53 0.0 1.6 0.00 0.00 0.00 88
20260904134739 16 53 0.0 3.2 0.00 0.00 0.00 88
20260904134335 16 63 0.0 3.2 0.00 0.00 0.00 88
20260904134133 16 57 0.0 3.2 0.00 0.00 0.00 88
20260904133933 16 54 0.0 3.2 0.00 0.00 0.00 88
20260904133731 16 71 1.6 0.0 0.00 0.00 0.00 88
20260904133325 16 42 0.0 0.0 0.00 0.00 0.00 88
20260904132922 16 42 0.0 1.6 0.00 0.00 0.00 88
20260904132720 16 82 0.0 1.6 0.00 0.00 0.00 88
20260904132518 16 82 0.0 1.6 0.00 0.00 0.00 88
20260904132316 16 82 0.0 1.6 0.00 0.00 0.00 88
20260904132114 16 60 0.0 0.0 0.00 0.00 0.00 88
20260904131912 16 60 0.0 0.0 0.00 0.00 0.00 88
20260904131710 16 60 0.0 0.0 0.00 0.00 0.00 88
20260904131508 16 60 0.0 0.0 0.00 0.00 0.00 88
20260904131306 16 60 0.0 0.0 0.00 0.00 0.00 88
20260904131104 16 60 0.0 8.0 0.00 0.00 0.00 88
20260904130903 16 60 0.0 8.0 0.00 0.00 0.00 88
20260904130701 16 60 0.0 8.0 0.00 0.00 0.00 88
20260904130257 16 106 3.2 8.0 0.00 0.00 0.00 88
20260904130055 16 108 6.4 8.0 0.00 0.00 0.00 88
20260904125853 16 75 1.6 8.0 0.00 0.00 0.00 88
20260904125651 15 106 8.0 6.4 0.00 0.00 0.00 88
20260904125449 15 75 3.2 6.4 0.00 0.00 0.00 88
20260904125247 15 104 4.8 6.4 0.00 0.00 0.00 88
20260904125045 15 102 3.2 6.4 0.00 0.00 0.00 87
20260904124844 15 106 4.8 6.4 0.00 0.00 0.00 87
20260904124642 15 112 1.6 6.4 0.00 0.00 0.00 87
20260904124441 15 120 3.2 6.4 0.00 0.00 0.00 87
20260904124238 15 106 4.8 8.0 0.00 0.00 0.00 87
20260904124036 15 113 3.2 8.0 0.00 0.00 0.00 87
20260904123834 15 112 4.8 8.0 0.00 0.00 0.00 88
20260904123632 15 99 6.4 6.4 0.00 0.00 0.00 88
20260904123430 15 102 4.8 6.4 0.00 0.00 0.00 88
20260904123228 15 97 1.6 0.0 0.00 0.00 0.00 88
20260904123026 15 113 4.8 0.0 0.00 0.00 0.00 88
20260904122824 15 175 0.0 0.0 0.00 0.00 0.00 87
20260904122623 15 175 0.0 0.0 0.00 0.00 0.00 87
20260904122422 15 175 0.0 0.0 0.00 0.00 0.00 88
20260904122219 15 175 0.0 0.0 0.00 0.00 0.00 88
20260904122017 15 175 0.0 0.0 0.00 0.00 0.00 88
20260904121816 15 175 0.0 0.0 0.00 0.00 0.00 88
20260904121613 15 175 0.0 0.0 0.00 0.00 0.00 88
20260904121411 15 175 0.0 0.0 0.00 0.00 0.00 88
20260904121209 15 175 0.0 0.0 0.00 0.00 0.00 88
20260904120805 15 175 0.0 0.0 0.00 0.00 0.00 88
20260904120605 15 175 0.0 0.0 0.00 0.00 0.00 88
20260904120402 15 175 0.0 0.0 0.00 0.00 0.00 88
20260904120200 15 175 0.0 0.0 0.00 0.00 0.00 88
20260904115958 15 175 0.0 0.0 0.00 0.00 0.00 88
20260904115556 15 175 0.0 0.0 0.00 0.00 0.00 88
20260904115352 15 175 0.0 0.0 0.00 0.00 0.00 88
20260904115150 15 175 0.0 0.0 0.00 0.00 0.00 88
20260904114948 15 175 0.0 0.0 0.00 0.00 0.00 89
20260904114746 15 175 0.0 0.0 0.00 0.00 0.00 88
20260904114544 15 175 0.0 0.0 0.00 0.00 0.00 88
20260904114343 15 175 0.0 0.0 0.00 0.00 0.00 88
20260904114141 15 175 0.0 0.0 0.00 0.00 0.00 88
20260904113939 15 175 0.0 0.0 0.00 0.00 0.00 88
20260904113737 15 175 0.0 0.0 0.00 0.00 0.00 88
20260904113535 15 175 0.0 0.0 0.00 0.00 0.00 88
20260904113333 15 175 0.0 0.0 0.00 0.00 0.00 88
20260904113131 15 175 0.0 0.0 0.00 0.00 0.00 88
20260904112929 15 175 0.0 0.0 0.00 0.00 0.00 88
20260904112729 15 175 0.0 0.0 0.00 0.00 0.00 88
20260904112525 15 175 0.0 0.0 0.00 0.00 0.00 88
20260904112324 15 175 0.0 0.0 0.00 0.00 0.00 88
20260904112122 15 175 0.0 0.0 0.00 0.00 0.00 88
20260904111920 15 175 0.0 0.0 0.00 0.00 0.00 88
20260904111718 15 175 0.0 0.0 0.00 0.00 0.00 88
20260904111516 15 175 0.0 0.0 0.00 0.00 0.00 87
20260904111314 15 175 0.0 0.0 0.00 0.00 0.00 87
20260904111113 15 175 0.0 0.0 0.00 0.00 0.00 87
20260904110912 15 175 0.0 0.0 0.00 0.00 0.00 87
20260904110710 15 175 0.0 0.0 0.00 0.00 0.00 87
20260904110306 15 175 0.0 0.0 0.00 0.00 0.00 87
20260904110105 15 175 0.0 0.0 0.00 0.00 0.00 87
20260904105902 15 175 0.0 0.0 0.00 0.00 0.00 87
20260904105659 15 175 0.0 0.0 0.00 0.00 0.00 87
20260904105458 15 175 0.0 0.0 0.00 0.00 0.00 87
20260904105255 15 175 0.0 0.0 0.00 0.00 0.00 87
20260904105053 15 175 0.0 0.0 0.00 0.00 0.00 86
20260904104853 15 175 0.0 0.0 0.00 0.00 0.00 86
20260904104650 15 175 0.0 0.0 0.00 0.00 0.00 86
20260904104447 15 175 0.0 0.0 0.00 0.00 0.00 86
20260904104043 15 175 0.0 0.0 0.00 0.00 0.00 87
20260904103842 15 175 0.0 0.0 0.00 0.00 0.00 87
20260904103642 15 175 0.0 0.0 0.00 0.00 0.00 87
20260904103438 15 175 0.0 0.0 0.00 0.00 0.00 86
20260904103236 15 175 0.0 0.0 0.00 0.00 0.00 86
20260904103034 15 175 0.0 0.0 0.00 0.00 0.00 86
20260904102832 15 175 0.0 0.0 0.00 0.00 0.00 86
20260904102630 15 175 0.0 0.0 0.00 0.00 0.00 86
20260904102428 15 175 0.0 0.0 0.00 0.00 0.00 86
20260904102226 15 175 0.0 0.0 0.00 0.00 0.00 86
20260904102024 15 175 0.0 0.0 0.00 0.00 0.00 86
20260904101823 15 175 0.0 0.0 0.00 0.00 0.00 86
20260904101621 15 175 0.0 0.0 0.00 0.00 0.00 86
20260904101419 15 175 0.0 0.0 0.00 0.00 0.00 86
20260904101217 15 175 0.0 0.0 0.00 0.00 0.00 86
20260904101015 15 175 0.0 0.0 0.00 0.00 0.00 86
20260904100813 15 175 0.0 0.0 0.00 0.00 0.00 86
20260904100611 15 175 0.0 0.0 0.00 0.00 0.00 86
20260904100409 15 175 0.0 0.0 0.00 0.00 0.00 86
20260904100207 15 175 0.0 0.0 0.00 0.00 0.00 86
20260904100006 15 175 0.0 0.0 0.00 0.00 0.00 86
20260904095803 15 175 0.0 0.0 0.00 0.00 0.00 86
20260904095602 15 175 0.0 0.0 0.00 0.00 0.00 86
20260904095400 15 175 0.0 0.0 0.00 0.00 0.00 86
20260904095159 15 175 0.0 0.0 0.00 0.00 0.00 86
20260904094956 15 175 0.0 0.0 0.00 0.00 0.00 86
20260904094754 15 175 0.0 0.0 0.00 0.00 0.00 86
20260904094552 15 175 0.0 0.0 0.00 0.00 0.00 86
20260904094350 15 175 0.0 0.0 0.00 0.00 0.00 86
20260904094148 15 175 0.0 0.0 0.00 0.00 0.00 86
20260904093946 15 175 0.0 0.0 0.00 0.00 0.00 86
20260904093746 15 175 0.0 0.0 0.00 0.00 0.00 86
20260904093543 15 175 0.0 0.0 0.00 0.00 0.00 85
20260904093341 15 175 0.0 0.0 0.00 0.00 0.00 85
20260904093139 15 175 0.0 0.0 0.00 0.00 0.00 85
20260904092937 15 175 0.0 0.0 0.00 0.00 0.00 85
20260904092735 15 175 0.0 0.0 0.00 0.00 0.00 85
20260904092533 15 175 0.0 0.0 0.00 0.00 0.00 85
20260904092333 15 175 0.0 0.0 0.00 0.00 0.00 85
20260904092129 15 175 0.0 0.0 0.00 0.00 0.00 85
20260904091929 15 175 0.0 0.0 0.00 0.00 0.00 85
20260904091524 15 175 0.0 0.0 0.00 0.00 0.00 85
20260904091322 15 175 0.0 0.0 0.00 0.00 0.00 85
20260904091120 15 175 0.0 0.0 0.00 0.00 0.00 85
20260904090918 15 175 0.0 0.0 0.00 0.00 0.00 85
20260904090716 15 175 0.0 0.0 0.00 0.00 0.00 85
20260904090514 15 175 0.0 0.0 0.00 0.00 0.00 85
20260904090312 15 175 0.0 0.0 0.00 0.00 0.00 85
20260904090110 15 175 0.0 0.0 0.00 0.00 0.00 85
20260904085908 15 175 0.0 0.0 0.00 0.00 0.00 85
20260904085305 15 175 0.0 0.0 0.00 0.00 0.00 85
20260904085101 15 175 0.0 0.0 0.00 0.00 0.00 84
20260904084859 15 175 0.0 0.0 0.00 0.00 0.00 84
20260904084657 15 175 0.0 0.0 0.00 0.00 0.00 84
20260904084455 15 175 0.0 0.0 0.00 0.00 0.00 84
20260904084255 15 175 0.0 0.0 0.00 0.00 0.00 84
20260904084051 15 175 0.0 0.0 0.00 0.00 0.00 84
20260904083849 15 175 0.0 0.0 0.00 0.00 0.00 84
20260904083647 15 175 0.0 0.0 0.00 0.00 0.00 84
20260904083445 15 175 0.0 0.0 0.00 0.00 0.00 84
20260904083244 15 175 0.0 0.0 0.00 0.00 0.00 84
20260904083044 16 175 0.0 0.0 0.00 0.00 0.00 84
20260904082840 16 175 0.0 0.0 0.00 0.00 0.00 84
20260904082638 16 175 0.0 0.0 0.00 0.00 0.00 84
20260904082436 16 175 0.0 0.0 0.00 0.00 0.00 84
20260904082234 16 175 0.0 0.0 0.00 0.00 0.00 84
20260904082032 16 175 0.0 0.0 0.00 0.00 0.00 84
20260904081830 16 175 0.0 0.0 0.00 0.00 0.00 84
20260904081628 16 175 0.0 0.0 0.00 0.00 0.00 84
20260904081426 16 175 0.0 0.0 0.00 0.00 0.00 84
20260904081224 16 175 0.0 0.0 0.00 0.00 0.00 84
20260904081024 16 175 0.0 0.0 0.00 0.00 0.00 84
20260904080821 16 175 0.0 0.0 0.00 0.00 0.00 84
20260904080619 16 175 0.0 0.0 0.00 0.00 0.00 84
20260904080417 16 175 0.0 0.0 0.00 0.00 0.00 84
20260904080215 16 175 0.0 0.0 0.00 0.00 0.00 84
20260904080013 16 175 0.0 0.0 0.00 0.00 0.00 84
20260904075811 16 175 0.0 0.0 0.00 0.00 0.00 85
20260904075609 16 175 0.0 0.0 0.00 0.00 0.00 85
20260904075205 16 175 0.0 0.0 0.00 0.00 0.00 85
20260904075004 16 175 0.0 0.0 0.00 0.00 0.00 84
20260904074804 16 175 0.0 0.0 0.00 0.00 0.00 84
20260904074600 16 175 0.0 0.0 0.00 0.00 0.00 84
20260904074358 16 175 0.0 0.0 0.00 0.00 0.00 84
20260904074156 16 175 0.0 0.0 0.00 0.00 0.00 84
20260904073954 16 175 0.0 0.0 0.00 0.00 0.00 84
20260904073752 16 175 0.0 0.0 0.00 0.00 0.00 84
20260904073550 16 175 0.0 0.0 0.00 0.00 0.00 84
20260904073348 16 175 0.0 0.0 0.00 0.00 0.00 84
20260904073146 16 175 0.0 0.0 0.00 0.00 0.00 84
20260904072944 16 175 0.0 0.0 0.00 0.00 0.00 84
20260904072745 16 175 0.0 0.0 0.00 0.00 0.00 83
20260904072543 16 175 0.0 0.0 0.00 0.00 0.00 83
20260904072339 16 175 0.0 0.0 0.00 0.00 0.00 83
20260904072137 16 175 0.0 0.0 0.00 0.00 0.00 83
20260904071935 16 175 0.0 0.0 0.00 0.00 0.00 83
20260904071533 16 175 0.0 0.0 0.00 0.00 0.00 83
20260904071329 16 175 0.0 0.0 0.00 0.00 0.00 84
20260904071127 16 175 0.0 0.0 0.00 0.00 0.00 84
20260904070925 16 175 0.0 0.0 0.00 0.00 0.00 84
20260904070724 16 175 0.0 0.0 0.00 0.00 0.00 84
20260904070522 16 175 0.0 0.0 0.00 0.00 0.00 83
20260904070320 16 175 0.0 0.0 0.00 0.00 0.00 83
20260904070118 16 175 0.0 0.0 0.00 0.00 0.00 83
20260904065916 16 175 0.0 0.0 0.00 0.00 0.00 83
20260904065714 16 175 0.0 0.0 0.00 0.00 0.00 83
20260904065512 16 175 0.0 0.0 0.00 0.00 0.00 84
20260904065310 16 175 0.0 0.0 0.00 0.00 0.00 83
20260904065108 16 175 0.0 0.0 0.00 0.00 0.00 83
20260904064906 16 175 0.0 0.0 0.00 0.00 0.00 83
20260904064301 16 175 0.0 0.0 0.00 0.00 0.00 83
20260904064059 16 175 0.0 0.0 0.00 0.00 0.00 82
20260904063857 16 175 0.0 0.0 0.00 0.00 0.00 82
20260904063655 16 175 0.0 0.0 0.00 0.00 0.00 82
20260904063453 16 175 0.0 0.0 0.00 0.00 0.00 82
20260904063251 16 175 0.0 0.0 0.00 0.00 0.00 82
20260904063049 16 175 0.0 0.0 0.00 0.00 0.00 81
20260904062847 16 175 0.0 0.0 0.00 0.00 0.00 81
20260904062647 16 175 0.0 0.0 0.00 0.00 0.00 81
20260904062443 17 175 0.0 0.0 0.00 0.00 0.00 81
20260904062242 17 175 0.0 0.0 0.00 0.00 0.00 81
20260904062040 17 175 0.0 0.0 0.00 0.00 0.00 81
20260904061838 17 175 0.0 0.0 0.00 0.00 0.00 81
20260904061636 17 175 0.0 0.0 0.00 0.00 0.00 81
20260904061434 17 175 0.0 0.0 0.00 0.00 0.00 81
20260904061232 17 175 0.0 0.0 0.00 0.00 0.00 81
20260904061030 17 175 0.0 0.0 0.00 0.00 0.00 81
20260904060828 17 175 0.0 0.0 0.00 0.00 0.00 81
20260904060626 17 175 0.0 0.0 0.00 0.00 0.00 81
20260904060424 17 175 0.0 0.0 0.00 0.00 0.00 81
20260904060223 17 175 0.0 0.0 0.00 0.00 0.00 81
20260904060021 17 175 0.0 0.0 0.00 0.00 0.00 81
20260904055819 17 175 0.0 0.0 0.00 0.00 0.00 81
20260904055617 17 175 0.0 0.0 0.00 0.00 0.00 81
20260904055415 17 175 0.0 0.0 0.00 0.00 0.00 81
20260904055213 17 175 0.0 0.0 0.00 0.00 0.00 81
20260904055011 17 175 0.0 0.0 0.00 0.00 0.00 81
20260904054809 17 175 0.0 0.0 0.00 0.00 0.00 81
20260904054607 17 175 0.0 0.0 0.00 0.00 0.00 81
20260904054405 17 175 0.0 0.0 0.00 0.00 0.00 80
20260904054203 17 175 0.0 0.0 0.00 0.00 0.00 80
20260904054002 17 175 0.0 0.0 0.00 0.00 0.00 80
20260904053800 17 175 0.0 0.0 0.00 0.00 0.00 80
20260904053558 17 175 0.0 0.0 0.00 0.00 0.00 80
20260904053359 17 175 0.0 0.0 0.00 0.00 0.00 80
20260904053154 17 175 0.0 0.0 0.00 0.00 0.00 80
20260904052952 17 175 0.0 0.0 0.00 0.00 0.00 80
20260904052750 17 175 0.0 0.0 0.00 0.00 0.00 80
20260904052548 17 175 0.0 0.0 0.00 0.00 0.00 80
20260904052346 17 175 0.0 0.0 0.00 0.00 0.00 80
20260904052144 17 175 0.0 0.0 0.00 0.00 0.00 80
20260904051942 17 175 0.0 0.0 0.00 0.00 0.00 80
20260904051539 17 175 0.0 0.0 0.00 0.00 0.00 80
20260904051337 17 175 0.0 0.0 0.00 0.00 0.00 80
20260904051135 17 175 0.0 0.0 0.00 0.00 0.00 79
20260904050933 17 175 0.0 0.0 0.00 0.00 0.00 79
20260904050731 17 175 0.0 0.0 0.00 0.00 0.00 79
20260904050529 17 175 0.0 0.0 0.00 0.00 0.00 79
20260904050327 17 175 0.0 0.0 0.00 0.00 0.00 79
20260904050125 17 175 0.0 0.0 0.00 0.00 0.00 79
20260904045923 17 175 0.0 0.0 0.00 0.00 0.00 79
20260904045722 18 175 0.0 0.0 0.00 0.00 0.00 79
20260904045521 18 175 0.0 0.0 0.00 0.00 0.00 78
20260904045320 18 175 0.0 0.0 0.00 0.00 0.00 78
20260904045118 18 175 0.0 0.0 0.00 0.00 0.00 78
20260904044916 18 175 0.0 0.0 0.00 0.00 0.00 78
20260904044712 18 175 0.0 0.0 0.00 0.00 0.00 78
20260904044512 18 175 0.0 0.0 0.00 0.00 0.00 78
20260904044308 18 175 0.0 0.0 0.00 0.00 0.00 77
20260904043906 18 175 0.0 0.0 0.00 0.00 0.00 77
20260904043703 18 175 0.0 0.0 0.00 0.00 0.00 77
20260904043502 18 175 0.0 0.0 0.00 0.00 0.00 76
20260904043259 18 175 0.0 0.0 0.00 0.00 0.00 76
20260904042855 18 175 0.0 0.0 0.00 0.00 0.00 75
20260904042653 18 175 0.0 0.0 0.00 0.00 0.00 75
20260904042451 18 175 0.0 0.0 0.00 0.00 0.00 75
20260904042249 18 175 0.0 0.0 0.00 0.00 0.00 75
20260904042047 18 175 0.0 0.0 0.00 0.00 0.00 76
20260904041643 18 175 0.0 0.0 0.00 0.00 0.00 76
20260904041441 18 175 0.0 0.0 0.00 0.00 0.00 76
20260904041240 18 175 0.0 0.0 0.00 0.00 0.00 76
20260904041038 18 175 0.0 0.0 0.00 0.00 0.00 76
20260904040836 18 175 0.0 0.0 0.00 0.00 0.00 76
20260904040636 18 175 0.0 0.0 0.00 0.00 0.00 75
20260904040432 18 175 0.0 0.0 0.00 0.00 0.00 75
20260904040230 18 175 0.0 0.0 0.00 0.00 0.00 76
20260904040028 18 175 0.0 0.0 0.00 0.00 0.00 75
20260904035826 18 175 0.0 0.0 0.00 0.00 0.00 75
20260904035624 18 175 0.0 0.0 0.00 0.00 0.00 75
20260904035422 18 175 0.0 0.0 0.00 0.00 0.00 75
20260904035221 18 175 0.0 0.0 0.00 0.00 0.00 75
20260904035019 18 175 0.0 0.0 0.00 0.00 0.00 75
20260904034615 18 175 0.0 0.0 0.00 0.00 0.00 74
20260904034413 18 175 0.0 0.0 0.00 0.00 0.00 74
20260904033807 19 175 0.0 0.0 0.00 0.00 0.00 73
20260904033605 19 175 0.0 0.0 0.00 0.00 0.00 73
20260904033403 19 175 0.0 0.0 0.00 0.00 0.00 73
20260904033000 19 175 0.0 0.0 0.00 0.00 0.00 73
20260904032758 19 175 0.0 0.0 0.00 0.00 0.00 72
20260904032354 19 175 0.0 1.6 0.00 0.00 0.00 72
20260904032152 19 274 0.0 0.0 0.00 0.00 0.00 72
20260904031950 19 274 0.0 0.0 0.00 0.00 0.00 71
20260904031748 20 274 0.0 0.0 0.00 0.00 0.00 71
20260904031546 20 274 0.0 0.0 0.00 0.00 0.00 71
20260904031344 20 274 0.0 0.0 0.00 0.00 0.00 71
20260904031142 20 274 0.0 0.0 0.00 0.00 0.00 71
20260904030941 20 274 0.0 0.0 0.00 0.00 0.00 71
20260904030739 20 274 0.0 4.8 0.00 0.00 0.00 71
20260904030537 20 274 0.0 4.8 0.00 0.00 0.00 71
20260904030335 20 274 0.0 4.8 0.00 0.00 0.00 71
20260904030133 20 274 0.0 8.0 0.00 0.00 0.00 70
20260904025931 20 285 1.6 8.0 0.00 0.00 0.00 70
20260904025729 20 278 0.0 9.7 0.00 0.00 0.00 71
20260904025527 20 285 4.8 9.7 0.00 0.00 0.00 71
20260904025325 20 282 1.6 9.7 0.00 0.00 0.00 70
20260904025123 20 277 3.2 11.3 0.00 0.00 0.00 70
20260904024922 20 286 6.4 11.3 0.00 0.00 0.00 70
20260904024720 20 289 3.2 6.4 0.00 0.00 0.00 69
20260904024518 20 285 3.2 6.4 0.00 0.00 0.00 69
20260904024316 20 285 8.0 6.4 0.00 0.00 0.00 69
20260904024114 20 279 3.2 9.7 0.00 0.00 0.00 69
20260904023912 20 268 3.2 9.7 0.00 0.00 0.00 68
20260904023710 20 271 3.2 12.9 0.00 0.00 0.00 68
20260904023508 20 257 6.4 12.9 0.00 0.00 0.00 68
20260904023308 20 251 0.0 12.9 0.00 0.00 0.00 67
20260904023104 20 274 0.0 9.7 0.00 0.00 0.00 68
20260904022902 20 282 8.0 9.7 0.00 0.00 0.00 67
20260904022700 20 288 3.2 11.3 0.00 0.00 0.00 66
20260904022458 21 265 1.6 11.3 0.00 0.00 0.00 67
20260904022256 21 293 3.2 11.3 0.00 0.00 0.00 66
20260904022054 21 285 4.8 12.9 0.00 0.00 0.00 66
20260904021852 21 272 8.0 12.9 0.00 0.00 0.00 66
20260904021650 21 274 9.7 11.3 0.00 0.00 0.00 65
20260904021448 21 295 6.4 11.3 0.00 0.00 0.00 64
20260904021246 21 277 4.8 11.3 0.00 0.00 0.00 64
20260904021045 21 289 1.6 12.9 0.00 0.00 0.00 63
20260904020843 21 264 6.4 12.9 0.00 0.00 0.00 63
20260904020641 21 295 6.4 14.5 0.00 0.00 0.00 63
20260904020439 21 278 11.3 14.5 0.00 0.00 0.00 63
20260904020237 21 278 11.3 16.1 0.00 0.00 0.00 63
20260904020036 21 267 12.9 16.1 0.00 0.00 0.00 62
20260904015833 21 270 12.9 16.1 0.00 0.00 0.00 62
20260904015632 22 261 12.9 12.9 0.00 0.00 0.00 61
20260904015429 22 278 9.7 12.9 0.00 0.00 0.00 60
20260904015227 22 265 4.8 16.1 0.00 0.00 0.00 60
20260904015027 22 268 9.7 16.1 0.00 0.00 0.00 60
20260904014825 22 272 6.4 16.1 0.00 0.00 0.00 60
20260904014623 22 278 8.0 22.5 0.00 0.00 0.00 60
20260904014419 22 279 12.9 22.5 0.00 0.00 0.00 60
20260904014219 22 272 12.9 20.9 0.00 0.00 0.00 59
20260904014015 22 258 17.7 20.9 0.00 0.00 0.00 59
20260904013815 22 265 14.5 20.9 0.00 0.00 0.00 59
20260904013613 22 270 9.7 16.1 0.00 0.00 0.00 59
20260904013409 22 254 14.5 16.1 0.00 0.00 0.00 58
20260904013209 22 260 16.1 19.3 0.00 0.00 0.00 58
20260904013007 22 271 14.5 19.3 0.00 0.00 0.00 58
20260904012803 22 253 9.7 19.3 0.00 0.00 0.00 58
20260904012601 22 258 19.3 20.9 0.00 0.00 0.00 57
20260904012401 22 268 11.3 20.9 0.00 0.00 0.00 58
20260904012159 22 270 17.7 24.1 0.00 0.00 0.00 58
20260904011956 22 267 14.5 24.1 0.00 0.00 0.00 58
20260904011755 22 264 8.0 24.1 0.00 0.00 0.00 58
20260904011552 22 268 16.1 22.5 0.00 0.00 0.00 58
20260904011350 22 296 8.0 22.5 0.00 0.00 0.00 58
20260904010341 23 277 16.1 24.1 0.00 0.00 0.00 57
20260904010138 23 258 20.9 22.5 0.00 0.00 0.00 57
20260904005936 23 261 8.0 22.5 0.00 0.00 0.00 57
20260904005734 23 285 9.7 20.9 0.00 0.00 0.00 58
20260904005532 23 272 14.5 20.9 0.00 0.00 0.00 58
20260904005330 23 260 20.9 20.9 0.00 0.00 0.00 58
20260904005130 23 265 11.3 22.5 0.00 0.00 0.00 58
20260904004928 23 268 16.1 22.5 0.00 0.00 0.00 57
20260904004726 23 277 14.5 20.9 0.00 0.00 0.00 57
20260904004522 23 251 12.9 20.9 0.00 0.00 0.00 57
20260904004322 23 274 8.0 20.9 0.00 0.00 0.00 57
20260904004118 23 255 17.7 24.1 0.00 0.00 0.00 56
20260904003918 23 251 4.8 24.1 0.00 0.00 0.00 57
20260904003716 23 261 20.9 24.1 0.00 0.00 0.00 56
20260904003514 23 262 16.1 24.1 0.00 0.00 0.00 56
20260904003311 23 253 12.9 24.1 0.00 0.00 0.00 56
20260904003109 23 264 22.5 19.3 0.00 0.00 0.00 55
20260904002907 23 278 11.3 19.3 0.00 0.00 0.00 55
20260904002503 23 258 16.1 20.9 0.00 0.00 0.00 55
20260904002306 23 255 12.9 20.9 0.00 0.00 0.00 55
20260904002059 23 262 9.7 24.1 0.00 0.00 0.00 55
20260904001857 23 261 17.7 24.1 0.00 0.00 0.00 56
20260904001655 23 268 11.3 19.3 0.00 0.00 0.00 56
20260904001453 23 260 14.5 19.3 0.00 0.00 0.00 56
20260904001253 23 255 4.8 19.3 0.00 0.00 0.00 56
20260904001049 23 272 12.9 22.5 0.00 0.00 0.00 56
20260904000443 23 246 17.7 22.5 0.00 0.00 0.00 56
20260904000241 23 265 19.3 25.7 0.00 0.00 0.00 56
20260904000039 23 270 17.7 25.7 0.00 0.00 0.00 55
20260903235837 24 285 11.3 25.7 0.00 0.00 0.00 54
20260903235433 23 261 11.3 24.1 0.00 0.00 0.00 55
20260903235231 23 251 12.9 25.7 0.00 0.00 0.00 55
20260903235029 23 309 9.7 25.7 0.00 0.00 0.00 56
20260903234827 23 255 20.9 25.7 0.00 0.00 0.00 55
20260903234423 23 271 19.3 29.0 0.00 0.00 0.00 56
20260903234224 23 251 20.9 27.4 0.00 0.00 0.00 55
20260903234020 23 262 25.7 27.4 0.00 0.00 0.00 55
20260903233616 23 257 22.5 27.4 0.00 0.00 0.00 53
20260903233414 24 92 6.4 27.4 0.00 0.00 0.00 55
20260903233212 23 255 12.9 27.4 0.00 0.00 0.00 56
20260903232606 24 262 17.7 27.4 0.00 0.00 0.00 54
20260903232404 24 262 20.9 27.4 0.00 0.00 0.00 54
20260903231800 24 260 22.5 25.7 0.00 0.00 0.00 52
20260903231558 24 248 16.1 24.1 0.00 0.00 0.00 53
20260903231356 24 226 11.3 24.1 0.00 0.00 0.00 54
20260903231154 24 275 16.1 25.7 0.00 0.00 0.00 55
20260903230952 24 237 11.3 25.7 0.00 0.00 0.00 55
20260903230750 24 246 19.3 25.7 0.00 0.00 0.00 53
20260903230345 24 254 19.3 27.4 0.00 0.00 0.00 54
20260903225942 25 261 12.9 27.4 0.00 0.00 0.00 52
20260903225538 24 251 16.1 27.4 0.00 0.00 0.00 54
20260903225337 24 247 16.1 27.4 0.00 0.00 0.00 55
20260903225135 24 265 11.3 25.7 0.00 0.00 0.00 55
20260903224931 25 270 20.9 25.7 0.00 0.00 0.00 55
20260903224731 24 264 11.3 32.2 0.00 0.00 0.00 55
20260903224529 25 277 19.3 32.2 0.00 0.00 0.00 55
20260903224327 24 250 16.1 32.2 0.00 0.00 0.00 55
20260903224125 25 262 24.1 29.0 0.00 0.00 0.00 54
20260903223923 25 255 17.7 29.0 0.00 0.00 0.00 54
20260903223721 25 268 16.1 27.4 0.00 0.00 0.00 54
20260903223519 25 255 19.3 27.4 0.00 0.00 0.00 54
20260903223316 25 250 17.7 27.4 0.00 0.00 0.00 54
20260903223115 25 244 9.7 25.7 0.00 0.00 0.00 55
20260903222911 25 270 16.1 25.7 0.00 0.00 0.00 56
20260903222709 25 272 17.7 30.6 0.00 0.00 0.00 57
20260903222508 24 253 14.5 30.6 0.00 0.00 0.00 57
20260903222308 24 262 14.5 30.6 0.00 0.00 0.00 57
20260903222105 25 265 9.7 25.7 0.00 0.00 0.00 57
20260903221902 24 264 14.5 25.7 0.00 0.00 0.00 57
20260903221701 24 274 17.7 25.7 0.00 0.00 0.00 57
20260903221459 25 250 14.5 25.7 0.00 0.00 0.00 57
20260903221257 25 254 14.5 25.7 0.00 0.00 0.00 56
20260903221055 25 278 16.1 25.7 0.00 0.00 0.00 56
20260903220854 25 237 19.3 25.7 0.00 0.00 0.00 56
20260903220652 25 251 14.5 27.4 0.00 0.00 0.00 56
20260903220249 25 270 12.9 27.4 0.00 0.00 0.00 56
20260903220046 25 262 14.5 25.7 0.00 0.00 0.00 57
20260903215844 25 291 16.1 25.7 0.00 0.00 0.00 56
20260903215238 25 261 16.1 27.4 0.00 0.00 0.00 57
20260903215036 25 288 16.1 27.4 0.00 0.00 0.00 57
20260903214834 25 243 16.1 27.4 0.00 0.00 0.00 57
20260903214632 25 267 17.7 25.7 0.00 0.00 0.00 56
20260903214431 25 241 6.4 25.7 0.00 0.00 0.00 57
20260903214228 25 264 9.7 24.1 0.00 0.00 0.00 58
20260903214028 25 264 17.7 24.1 0.00 0.00 0.00 57
20260903213825 25 274 6.4 24.1 0.00 0.00 0.00 57
20260903213420 25 258 19.3 29.0 0.00 0.00 0.00 58
20260903213218 25 272 14.5 24.1 0.00 0.00 0.00 58
20260903213015 25 260 17.7 24.1 0.00 0.00 0.00 57
20260903212814 25 246 14.5 24.1 0.00 0.00 0.00 56
20260903212611 25 293 6.4 29.0 0.00 0.00 0.00 57
20260903212411 25 223 14.5 29.0 0.00 0.00 0.00 57
20260903212207 25 246 17.7 27.4 0.00 0.00 0.00 57
20260903211603 25 261 25.7 25.7 0.00 0.00 0.00 58
20260903211401 25 246 9.7 25.7 0.00 0.00 0.00 58
20260903211159 25 253 22.5 29.0 0.00 0.00 0.00 56
20260903210553 25 246 12.9 27.4 0.00 0.00 0.00 57
20260903210350 25 281 17.7 27.4 0.00 0.00 0.00 56
20260903210149 25 274 11.3 27.4 0.00 0.00 0.00 56
20260903205945 25 275 14.5 27.4 0.00 0.00 0.00 56
20260903205745 25 254 16.1 29.0 0.00 0.00 0.00 56
20260903204936 25 278 11.3 37.0 0.00 0.00 0.00 57
20260903204735 25 254 25.7 22.5 0.00 0.00 0.00 56
20260903204534 26 279 19.3 22.5 0.00 0.00 0.00 55
20260903204331 26 261 11.3 22.5 0.00 0.00 0.00 54
20260903204130 26 255 6.4 27.4 0.00 0.00 0.00 55
20260903203927 26 264 14.5 27.4 0.00 0.00 0.00 55